Time,TemperatureF,DewpointF,PressureIn,WindDirection,WindDirectionDegrees,WindSpeedMPH,WindSpeedGustMPH,Humidity,HourlyPrecipIn,Conditions,Clouds,dailyrainin,SoftwareType,DateUTC
2013-04-06 00:05:00,49.0,-99.9,29.94,NW,305,3.0,9.0,-999,-99.99,,,-99.99,,2013-04-06 04:05:00,
2013-04-06 00:14:00,48.0,-99.9,29.95,NW,305,2.0,7.0,-999,-99.99,,,-99.99,,2013-04-06 04:14:00,
2013-04-06 00:23:00,48.0,-99.9,29.96,NW,318,3.0,10.0,-999,-99.99,,,-99.99,,2013-04-06 04:23:00,
2013-04-06 00:33:00,48.0,-99.9,29.96,WNW,291,2.0,10.0,-999,-99.99,,,-99.99,,2013-04-06 04:33:00,
2013-04-06 00:43:00,48.0,-99.9,29.97,NW,316,1.0,7.0,-999,-99.99,,,-99.99,,2013-04-06 04:43:00,
2013-04-06 00:53:00,48.0,-99.9,29.97,NNE,22,1.0,4.0,-999,-99.99,,,-99.99,,2013-04-06 04:53:00,
2013-04-06 01:02:00,47.0,-99.9,29.98,NNW,348,2.0,4.0,-999,-99.99,,,-99.99,,2013-04-06 05:02:00,
2013-04-06 01:13:00,48.0,-99.9,29.99,North,9,3.0,7.0,-999,-99.99,,,-99.99,,2013-04-06 05:13:00,
2013-04-06 01:23:00,48.0,-99.9,30.00,NNE,23,6.0,11.0,-999,-99.99,,,-99.99,,2013-04-06 05:23:00,
2013-04-06 01:33:00,48.0,-99.9,30.00,NNE,32,5.0,11.0,-999,-99.99,,,-99.99,,2013-04-06 05:33:00,
2013-04-06 01:43:00,48.0,-99.9,30.01,NNE,25,5.0,10.0,-999,-99.99,,,-99.99,,2013-04-06 05:43:00,
2013-04-06 01:53:00,47.0,-99.9,30.02,NNE,24,5.0,9.0,-999,-99.99,,,-99.99,,2013-04-06 05:53:00,
2013-04-06 02:03:00,47.0,-99.9,30.02,NNE,25,5.0,11.0,-999,-99.99,,,-99.99,,2013-04-06 06:03:00,
2013-04-06 02:12:00,47.0,-99.9,30.02,NNE,16,5.0,10.0,-999,-99.99,,,-99.99,,2013-04-06 06:12:00,
2013-04-06 02:23:00,46.0,-99.9,30.03,NNE,12,5.0,9.0,-999,-99.99,,,-99.99,,2013-04-06 06:23:00,
2013-04-06 02:33:00,46.0,-99.9,30.03,NNE,20,7.0,12.0,-999,-99.99,,,-99.99,,2013-04-06 06:33:00,
2013-04-06 02:43:00,46.0,-99.9,30.03,NNE,17,6.0,12.0,-999,-99.99,,,-99.99,,2013-04-06 06:43:00,
2013-04-06 02:53:00,45.0,-99.9,30.04,NNE,27,4.0,11.0,-999,-99.99,,,-99.99,,2013-04-06 06:53:00,
2013-04-06 03:05:00,45.0,-99.9,30.04,NNE,24,6.0,11.0,-999,-99.99,,,-99.99,,2013-04-06 07:05:00,
2013-04-06 03:12:00,45.0,-99.9,30.04,NNE,16,6.0,13.0,-999,-99.99,,,-99.99,,2013-04-06 07:12:00,
2013-04-06 03:23:00,45.0,-99.9,30.04,NNE,20,8.0,15.0,-999,-99.99,,,-99.99,,2013-04-06 07:23:00,
2013-04-06 03:34:00,44.0,-99.9,30.05,NNE,22,6.0,13.0,-999,-99.99,,,-99.99,,2013-04-06 07:34:00,
2013-04-06 03:45:00,44.0,-99.9,30.05,NNE,20,6.0,12.0,-999,-99.99,,,-99.99,,2013-04-06 07:45:00,
2013-04-06 03:53:00,43.0,-99.9,30.06,NNE,21,6.0,13.0,-999,-99.99,,,-99.99,,2013-04-06 07:53:00,
2013-04-06 04:02:00,43.0,-99.9,30.06,NNE,14,5.0,10.0,-999,-99.99,,,-99.99,,2013-04-06 08:02:00,
2013-04-06 04:13:00,43.0,-99.9,30.07,NNE,16,5.0,13.0,-999,-99.99,,,-99.99,,2013-04-06 08:13:00,
2013-04-06 04:22:00,43.0,-99.9,30.07,NNE,20,6.0,14.0,-999,-99.99,,,-99.99,,2013-04-06 08:22:00,
2013-04-06 04:32:00,43.0,-99.9,30.08,NNE,14,6.0,14.0,-999,-99.99,,,-99.99,,2013-04-06 08:32:00,
2013-04-06 04:43:00,43.0,-99.9,30.09,NNE,23,5.0,11.0,-999,-99.99,,,-99.99,,2013-04-06 08:43:00,
2013-04-06 04:52:00,42.0,-99.9,30.09,NNE,23,6.0,13.0,-999,-99.99,,,-99.99,,2013-04-06 08:52:00,
2013-04-06 05:02:00,42.0,-99.9,30.09,NNE,23,6.0,13.0,-999,-99.99,,,-99.99,,2013-04-06 09:02:00,
2013-04-06 05:13:00,42.0,-99.9,30.10,NNE,22,5.0,12.0,-999,-99.99,,,-99.99,,2013-04-06 09:13:00,
2013-04-06 05:22:00,42.0,-99.9,30.11,NNE,29,6.0,15.0,-999,-99.99,,,-99.99,,2013-04-06 09:22:00,
2013-04-06 05:33:00,42.0,-99.9,30.11,NNE,25,7.0,13.0,-999,-99.99,,,-99.99,,2013-04-06 09:33:00,
2013-04-06 05:43:00,41.0,-99.9,30.12,NNE,25,5.0,12.0,-999,-99.99,,,-99.99,,2013-04-06 09:43:00,
2013-04-06 05:53:00,41.0,-99.9,30.13,NNE,31,7.0,15.0,-999,-99.99,,,-99.99,,2013-04-06 09:53:00,
2013-04-06 06:04:00,41.0,-99.9,30.14,NNE,22,6.0,13.0,-999,-99.99,,,-99.99,,2013-04-06 10:04:00,
2013-04-06 06:13:00,40.0,-99.9,30.14,NNE,20,6.0,11.0,-999,-99.99,,,-99.99,,2013-04-06 10:13:00,
2013-04-06 06:23:00,40.0,-99.9,30.15,NNE,28,4.0,7.0,-999,-99.99,,,-99.99,,2013-04-06 10:23:00,
2013-04-06 06:34:00,40.0,-99.9,30.16,NNE,27,7.0,15.0,-999,-99.99,,,-99.99,,2013-04-06 10:34:00,
2013-04-06 06:43:00,40.0,-99.9,30.16,NNE,27,4.0,8.0,-999,-99.99,,,-99.99,,2013-04-06 10:43:00,
2013-04-06 06:54:00,40.0,-99.9,30.16,NNE,25,3.0,8.0,-999,-99.99,,,-99.99,,2013-04-06 10:54:00,
2013-04-06 07:03:00,40.0,-99.9,30.18,NE,34,4.0,9.0,-999,-99.99,,,-99.99,,2013-04-06 11:03:00,
2013-04-06 07:13:00,39.0,-99.9,30.19,NNE,22,7.0,13.0,-999,-99.99,,,-99.99,,2013-04-06 11:13:00,
2013-04-06 07:23:00,40.0,-99.9,30.20,NNE,31,4.0,7.0,-999,-99.99,,,-99.99,,2013-04-06 11:23:00,
2013-04-06 07:33:00,40.0,-99.9,30.20,NNE,21,5.0,10.0,-999,-99.99,,,-99.99,,2013-04-06 11:33:00,
2013-04-06 07:43:00,40.0,-99.9,30.21,NNE,28,6.0,15.0,-999,-99.99,,,-99.99,,2013-04-06 11:43:00,
2013-04-06 07:53:00,41.0,-99.9,30.22,NNE,30,3.0,7.0,-999,-99.99,,,-99.99,,2013-04-06 11:53:00,
2013-04-06 08:02:00,40.0,-99.9,30.22,NE,34,8.0,15.0,-999,-99.99,,,-99.99,,2013-04-06 12:02:00,
2013-04-06 08:13:00,41.0,-99.9,30.23,NNE,14,9.0,18.0,-999,-99.99,,,-99.99,,2013-04-06 12:13:00,
2013-04-06 08:22:00,41.0,-99.9,30.24,NNE,15,6.0,11.0,-999,-99.99,,,-99.99,,2013-04-06 12:22:00,
2013-04-06 08:33:00,40.0,-99.9,30.24,NNE,14,6.0,11.0,-999,-99.99,,,-99.99,,2013-04-06 12:33:00,
2013-04-06 08:44:00,40.0,-99.9,30.25,NNE,17,10.0,17.0,-999,-99.99,,,-99.99,,2013-04-06 12:44:00,
2013-04-06 08:53:00,40.0,-99.9,30.25,NNE,13,9.0,18.0,-999,-99.99,,,-99.99,,2013-04-06 12:53:00,
2013-04-06 09:03:00,40.0,-99.9,30.26,North,8,11.0,20.0,-999,-99.99,,,-99.99,,2013-04-06 13:03:00,
2013-04-06 09:13:00,40.0,-99.9,30.26,NE,34,6.0,12.0,-999,-99.99,,,-99.99,,2013-04-06 13:13:00,
2013-04-06 09:24:00,41.0,-99.9,30.26,NNE,15,8.0,20.0,-999,-99.99,,,-99.99,,2013-04-06 13:24:00,
2013-04-06 09:33:00,40.0,-99.9,30.26,NNE,23,9.0,16.0,-999,-99.99,,,-99.99,,2013-04-06 13:33:00,
2013-04-06 09:44:00,41.0,-99.9,30.27,NNE,13,9.0,13.0,-999,-99.99,,,-99.99,,2013-04-06 13:44:00,
2013-04-06 09:54:00,41.0,-99.9,30.27,North,7,10.0,16.0,-999,-99.99,,,-99.99,,2013-04-06 13:54:00,
2013-04-06 10:05:00,41.0,-99.9,30.27,NNE,12,9.0,16.0,-999,-99.99,,,-99.99,,2013-04-06 14:05:00,
2013-04-06 10:13:00,42.0,-99.9,30.27,North,1,10.0,15.0,-999,-99.99,,,-99.99,,2013-04-06 14:13:00,
2013-04-06 10:23:00,42.0,-99.9,30.27,North,11,9.0,16.0,-999,-99.99,,,-99.99,,2013-04-06 14:23:00,
2013-04-06 10:33:00,41.0,-99.9,30.28,North,6,11.0,20.0,-999,-99.99,,,-99.99,,2013-04-06 14:33:00,
2013-04-06 10:43:00,42.0,-99.9,30.28,North,1,9.0,15.0,-999,-99.99,,,-99.99,,2013-04-06 14:43:00,
2013-04-06 10:53:00,42.0,-99.9,30.29,North,358,12.0,16.0,-999,-99.99,,,-99.99,,2013-04-06 14:53:00,
2013-04-06 11:02:00,42.0,-99.9,30.29,North,354,8.0,14.0,-999,-99.99,,,-99.99,,2013-04-06 15:02:00,
2013-04-06 11:12:00,42.0,-99.9,30.29,North,354,9.0,15.0,-999,-99.99,,,-99.99,,2013-04-06 15:12:00,
2013-04-06 11:23:00,45.0,-99.9,30.30,WNW,283,2.0,6.0,-999,-99.99,,,-99.99,,2013-04-06 15:23:00,
2013-04-06 11:34:00,45.0,-99.9,30.29,North,353,5.0,12.0,-999,-99.99,,,-99.99,,2013-04-06 15:34:00,
2013-04-06 11:43:00,43.0,-99.9,30.30,North,353,9.0,12.0,-999,-99.99,,,-99.99,,2013-04-06 15:43:00,
2013-04-06 11:54:00,43.0,-99.9,30.30,NNW,344,9.0,12.0,-999,-99.99,,,-99.99,,2013-04-06 15:54:00,
2013-04-06 12:05:00,44.0,-99.9,30.30,NNW,339,9.0,13.0,-999,-99.99,,,-99.99,,2013-04-06 16:05:00,
2013-04-06 12:17:00,44.0,-99.9,30.30,NNW,327,9.0,11.0,-999,-99.99,,,-99.99,,2013-04-06 16:17:00,
2013-04-06 12:23:00,44.0,-99.9,30.31,NNW,333,10.0,12.0,-999,-99.99,,,-99.99,,2013-04-06 16:23:00,
2013-04-06 12:33:00,44.0,-99.9,30.31,NNW,330,10.0,11.0,-999,-99.99,,,-99.99,,2013-04-06 16:33:00,
2013-04-06 12:43:00,45.0,-99.9,30.30,NNW,329,9.0,12.0,-999,-99.99,,,-99.99,,2013-04-06 16:43:00,
2013-04-06 12:53:00,44.0,-99.9,30.30,NW,326,10.0,12.0,-999,-99.99,,,-99.99,,2013-04-06 16:53:00,
2013-04-06 13:03:00,44.0,-99.9,30.31,NW,315,7.0,11.0,-999,-99.99,,,-99.99,,2013-04-06 17:03:00,
2013-04-06 13:13:00,44.0,-99.9,30.31,NW,312,10.0,13.0,-999,-99.99,,,-99.99,,2013-04-06 17:13:00,
2013-04-06 13:23:00,44.0,-99.9,30.30,WNW,301,7.0,10.0,-999,-99.99,,,-99.99,,2013-04-06 17:23:00,
2013-04-06 13:33:00,44.0,-99.9,30.30,NW,317,9.0,10.0,-999,-99.99,,,-99.99,,2013-04-06 17:33:00,
2013-04-06 13:43:00,44.0,-99.9,30.30,NW,319,8.0,10.0,-999,-99.99,,,-99.99,,2013-04-06 17:43:00,
2013-04-06 13:53:00,44.0,-99.9,30.30,NW,318,8.0,10.0,-999,-99.99,,,-99.99,,2013-04-06 17:53:00,
2013-04-06 14:03:00,44.0,-99.9,30.30,NW,317,9.0,10.0,-999,-99.99,,,-99.99,,2013-04-06 18:03:00,
2013-04-06 14:13:00,44.0,-99.9,30.31,NW,311,8.0,10.0,-999,-99.99,,,-99.99,,2013-04-06 18:13:00,
2013-04-06 14:24:00,45.0,-99.9,30.31,NW,322,9.0,11.0,-999,-99.99,,,-99.99,,2013-04-06 18:24:00,
2013-04-06 14:33:00,45.0,-99.9,30.30,NNW,327,9.0,11.0,-999,-99.99,,,-99.99,,2013-04-06 18:33:00,
2013-04-06 14:43:00,47.0,-99.9,30.30,NW,307,7.0,12.0,-999,-99.99,,,-99.99,,2013-04-06 18:43:00,
2013-04-06 14:52:00,47.0,-99.9,30.30,WNW,302,8.0,12.0,-999,-99.99,,,-99.99,,2013-04-06 18:52:00,
2013-04-06 15:03:00,46.0,-99.9,30.30,NW,312,7.0,12.0,-999,-99.99,,,-99.99,,2013-04-06 19:03:00,
2013-04-06 15:12:00,43.0,-99.9,30.30,WNW,290,9.0,11.0,-999,-99.99,,,-99.99,,2013-04-06 19:12:00,
2013-04-06 15:23:00,44.0,-99.9,30.30,West,271,7.0,9.0,-999,-99.99,,,-99.99,,2013-04-06 19:23:00,
2013-04-06 15:33:00,43.0,-99.9,30.29,West,274,9.0,10.0,-999,-99.99,,,-99.99,,2013-04-06 19:33:00,
2013-04-06 15:42:00,44.0,-99.9,30.29,West,271,7.0,8.0,-999,-99.99,,,-99.99,,2013-04-06 19:42:00,
2013-04-06 15:54:00,44.0,-99.9,30.29,WNW,283,5.0,7.0,-999,-99.99,,,-99.99,,2013-04-06 19:54:00,
2013-04-06 16:03:00,44.0,-99.9,30.29,West,266,4.0,5.0,-999,-99.99,,,-99.99,,2013-04-06 20:03:00,
2013-04-06 16:13:00,45.0,-99.9,30.29,WSW,246,6.0,7.0,-999,-99.99,,,-99.99,,2013-04-06 20:13:00,
2013-04-06 16:23:00,45.0,-99.9,30.29,WSW,248,6.0,8.0,-999,-99.99,,,-99.99,,2013-04-06 20:23:00,
2013-04-06 16:32:00,45.0,-99.9,30.29,WSW,248,6.0,8.0,-999,-99.99,,,-99.99,,2013-04-06 20:32:00,
2013-04-06 16:42:00,44.0,-99.9,30.28,South,172,8.0,11.0,-999,-99.99,,,-99.99,,2013-04-06 20:42:00,
2013-04-06 16:53:00,44.0,-99.9,30.28,SSE,165,10.0,13.0,-999,-99.99,,,-99.99,,2013-04-06 20:53:00,
2013-04-06 17:03:00,42.0,-99.9,30.28,SE,146,11.0,13.0,-999,-99.99,,,-99.99,,2013-04-06 21:03:00,
2013-04-06 17:14:00,43.0,-99.9,30.28,SSW,199,8.0,10.0,-999,-99.99,,,-99.99,,2013-04-06 21:14:00,
2013-04-06 17:22:00,42.0,-99.9,30.28,SSE,148,9.0,10.0,-999,-99.99,,,-99.99,,2013-04-06 21:22:00,
2013-04-06 17:33:00,43.0,-99.9,30.28,SE,142,9.0,11.0,-999,-99.99,,,-99.99,,2013-04-06 21:33:00,
2013-04-06 17:43:00,43.0,-99.9,30.28,SSE,164,9.0,12.0,-999,-99.99,,,-99.99,,2013-04-06 21:43:00,
2013-04-06 17:53:00,42.0,-99.9,30.29,South,173,7.0,9.0,-999,-99.99,,,-99.99,,2013-04-06 21:53:00,
2013-04-06 18:03:00,42.0,-99.9,30.29,SSE,156,9.0,13.0,-999,-99.99,,,-99.99,,2013-04-06 22:03:00,
2013-04-06 18:13:00,43.0,-99.9,30.29,SSE,152,6.0,9.0,-999,-99.99,,,-99.99,,2013-04-06 22:13:00,
2013-04-06 18:23:00,42.0,-99.9,30.29,South,171,8.0,11.0,-999,-99.99,,,-99.99,,2013-04-06 22:23:00,
2013-04-06 18:35:00,42.0,-99.9,30.29,SSE,158,9.0,11.0,-999,-99.99,,,-99.99,,2013-04-06 22:35:00,
2013-04-06 18:44:00,42.0,-99.9,30.29,SSE,166,10.0,13.0,-999,-99.99,,,-99.99,,2013-04-06 22:44:00,
2013-04-06 18:55:00,42.0,-99.9,30.29,SE,146,12.0,14.0,-999,-99.99,,,-99.99,,2013-04-06 22:55:00,
2013-04-06 19:03:00,42.0,-99.9,30.30,SSE,157,10.0,13.0,-999,-99.99,,,-99.99,,2013-04-06 23:03:00,
2013-04-06 19:14:00,42.0,-99.9,30.29,SSE,154,10.0,12.0,-999,-99.99,,,-99.99,,2013-04-06 23:14:00,
2013-04-06 19:24:00,42.0,-99.9,30.29,SSE,152,10.0,13.0,-999,-99.99,,,-99.99,,2013-04-06 23:24:00,
2013-04-06 19:34:00,42.0,-99.9,30.29,SSE,148,6.0,10.0,-999,-99.99,,,-99.99,,2013-04-06 23:34:00,
2013-04-06 19:43:00,41.0,-99.9,30.30,SSE,159,6.0,8.0,-999,-99.99,,,-99.99,,2013-04-06 23:43:00,
2013-04-06 20:03:00,41.0,-99.9,30.30,SSE,159,6.0,7.0,-999,-99.99,,,-99.99,,2013-04-07 00:03:00,
2013-04-06 20:13:00,41.0,-99.9,30.30,SSE,168,5.0,7.0,-999,-99.99,,,-99.99,,2013-04-07 00:13:00,
2013-04-06 20:23:00,41.0,-99.9,30.30,South,170,5.0,7.0,-999,-99.99,,,-99.99,,2013-04-07 00:23:00,
2013-04-06 20:33:00,41.0,-99.9,30.30,SSE,160,6.0,8.0,-999,-99.99,,,-99.99,,2013-04-07 00:33:00,
2013-04-06 20:44:00,41.0,-99.9,30.30,SSE,147,4.0,6.0,-999,-99.99,,,-99.99,,2013-04-07 00:44:00,
2013-04-06 20:53:00,40.0,-99.9,30.31,SE,146,4.0,5.0,-999,-99.99,,,-99.99,,2013-04-07 00:53:00,
2013-04-06 21:03:00,40.0,-99.9,30.31,SSE,147,4.0,6.0,-999,-99.99,,,-99.99,,2013-04-07 01:03:00,
2013-04-06 21:12:00,40.0,-99.9,30.31,SSE,152,5.0,7.0,-999,-99.99,,,-99.99,,2013-04-07 01:12:00,
2013-04-06 21:24:00,40.0,-99.9,30.31,SE,145,5.0,6.0,-999,-99.99,,,-99.99,,2013-04-07 01:24:00,
2013-04-06 21:33:00,40.0,-99.9,30.31,SE,146,6.0,8.0,-999,-99.99,,,-99.99,,2013-04-07 01:33:00,
2013-04-06 21:43:00,40.0,-99.9,30.31,SE,137,4.0,5.0,-999,-99.99,,,-99.99,,2013-04-07 01:43:00,
2013-04-06 21:53:00,40.0,-99.9,30.31,SE,143,4.0,6.0,-999,-99.99,,,-99.99,,2013-04-07 01:53:00,
2013-04-06 22:03:00,41.0,-99.9,30.32,SE,142,4.0,6.0,-999,-99.99,,,-99.99,,2013-04-07 02:03:00,
2013-04-06 22:13:00,41.0,-99.9,30.32,SSE,148,6.0,9.0,-999,-99.99,,,-99.99,,2013-04-07 02:13:00,
2013-04-06 22:24:00,41.0,-99.9,30.32,SE,144,6.0,8.0,-999,-99.99,,,-99.99,,2013-04-07 02:24:00,
2013-04-06 22:33:00,41.0,-99.9,30.32,SSE,147,6.0,7.0,-999,-99.99,,,-99.99,,2013-04-07 02:33:00,
2013-04-06 22:43:00,41.0,-99.9,30.32,SSE,149,6.0,9.0,-999,-99.99,,,-99.99,,2013-04-07 02:43:00,
2013-04-06 22:53:00,41.0,-99.9,30.32,SSE,163,6.0,8.0,-999,-99.99,,,-99.99,,2013-04-07 02:53:00,
2013-04-06 23:03:00,41.0,-99.9,30.31,SSE,159,6.0,8.0,-999,-99.99,,,-99.99,,2013-04-07 03:03:00,
2013-04-06 23:13:00,41.0,-99.9,30.31,SSE,158,6.0,8.0,-999,-99.99,,,-99.99,,2013-04-07 03:13:00,
2013-04-06 23:23:00,41.0,-99.9,30.31,South,170,6.0,9.0,-999,-99.99,,,-99.99,,2013-04-07 03:23:00,
2013-04-06 23:35:00,41.0,-99.9,30.31,SSE,163,8.0,13.0,-999,-99.99,,,-99.99,,2013-04-07 03:35:00,
2013-04-06 23:44:00,42.0,-99.9,30.31,SSE,164,8.0,12.0,-999,-99.99,,,-99.99,,2013-04-07 03:44:00,
2013-04-06 23:55:00,42.0,-99.9,30.31,SSE,166,9.0,14.0,-999,-99.99,,,-99.99,,2013-04-07 03:55:00,